Regional Weather Roundup
Issued by NWS

Home | Current Version | Previous Version | Text Only | Print | Product List | Glossary On
Versions: 1 2 3 4 5 6 7 8 9 10 11 12 13 14 15 16 17 18 19 20 21 22 23 24 25 26 27 28 29 30 31 32 33 34 35 36 37 38 39 40 41 42 43 44 45 46 47 48 49 50
000
ASUS43 KMKX 031021
RWRWI

WISCONSIN REGIONAL WEATHER ROUNDUP
NATIONAL WEATHER SERVICE MILWAUKEE/SULLIVAN WI
500 AM CDT TUE MAY 03 2016

NOTE: "FAIR" INDICATES FEW OR NO CLOUDS BELOW 12,000 FEET WITH NO
SIGNIFICANT WEATHER AND/OR OBSTRUCTIONS TO VISIBILITY.

WIZ001-002-006>008-014>016-023>028-031100-
NORTHWEST WISCONSIN

CITY           SKY/WX    TMP DP  RH WIND       PRES   REMARKS
SUPERIOR ARPT  CLOUDY    43  33  69 SW8       29.84F
ASHLAND        CLOUDY    49  33  54 SW8       29.85F
HAYWARD        CLEAR     34  30  85 CALM      29.90F
SIREN          CLEAR     48  34  57 W7        29.91F
CUMBERLAND     CLEAR     45  32  61 W8        29.92F
RICE LAKE      CLEAR     38  34  85 CALM      29.94S
CHETEK         CLEAR     38  34  84 CALM      29.92F
LADYSMITH      CLEAR     36  34  92 CALM      29.93S
EAU CLAIRE     CLEAR     42  38  85 SW3       29.93F
MENOMONIE      CLEAR     40  34  80 CALM      29.94F
NEW RICHMOND   CLEAR     42  36  78 CALM      29.94F
OSCEOLA        CLEAR     39  39 100 CALM      29.96F
$$

WIZ003>005-009-010-017-018-031100-
NORTH CENTRAL WISCONSIN

CITY           SKY/WX    TMP DP  RH WIND       PRES   REMARKS
MANITOWISH WTR FOG       31  31 100 CALM      29.88S VSB 3/4
ARBOR VITAE    CLEAR     37  32  84 CALM      29.88F
WOODRUFF       CLEAR     37  32  84 CALM      29.88F
RHINELANDER    CLEAR     34  29  82 W5        29.89F WCI  30
EAGLE RIVER    CLEAR     29  29 100 CALM      29.87F
LAND O LAKES   CLEAR     31  30  98 CALM      29.87F
PHILLIPS       CLEAR     34  33  94 CALM      29.89F
TOMAHAWK       CLEAR     31  29  93 CALM      29.90F
MEDFORD        CLEAR     44  33  66 W3        29.91F
MERRILL        CLEAR     32  31  99 CALM      29.92F
$$

WIZ029-030-035-036-043>047-031100-
CENTRAL WISCONSIN

CITY           SKY/WX    TMP DP  RH WIND       PRES   REMARKS
WAUSAU         CLEAR     44  35  70 NW5       29.90F
MOSINEE        CLEAR     43  34  70 W6        29.92F
MARSHFIELD     CLEAR     45  34  65 W7        29.92F
STEVENS POINT  CLEAR     33  31  94 CALM      29.93F
WAUPACA        CLEAR     41  33  73 CALM      29.92F
WAUTOMA        CLEAR     34  32  92 CALM      29.94F
WISC RAPIDS    CLEAR     36  33  89 CALM      29.94F
CAMP DOUGLAS     N/A     34  34 100 CALM      29.94
$$

WIZ011>013-019>022-031-037>040-048>050-031100-
NORTHEAST WISCONSIN

CITY           SKY/WX    TMP DP  RH WIND       PRES   REMARKS
ANTIGO         CLEAR     36  33  89 CALM      29.90F
SHAWANO        CLEAR     44  35  70 SW3       29.90F
OCONTO         CLEAR     39  38  96 SW3       29.88F
STURGEON BAY   CLEAR     45  34  65 SW8       29.91F
GREEN BAY      CLEAR     45  37  73 SW7       29.91F
MANITOWOC      CLEAR     43  33  68 SW6       29.92F
APPLETON       CLEAR     45  34  65 W8        29.90F
CLINTONVILLE   CLEAR     39  32  75 CALM      29.91F
OSHKOSH        CLEAR     46  34  62 SW6       29.92F
$$

WIZ032>034-041-042-053>061-031100-
SOUTHWEST WISCONSIN

CITY           SKY/WX    TMP DP  RH WIND       PRES   REMARKS
LA CROSSE      CLEAR     46  40  79 S5        29.97S
SPARTA         CLEAR     32  31  97 CALM      29.97F
VIROQUA        CLEAR     45  37  74 W7        29.97F
BOSCOBEL       CLEAR     39  37  92 SW3       29.99S
PRAIRIE DU CHI CLEAR     43  37  80 CALM      29.99F
PLATTEVILLE    CLEAR     43  39  86 W5        29.98F
$$

WIZ056-057-062-063-064-067-068-031100-
SOUTH CENTRAL WISCONSIN

CITY           SKY/WX    TMP DP  RH WIND       PRES   REMARKS
REEDSBURG      CLEAR     37  37 100 CALM      29.96S
BARABOO/DELLS  CLEAR     39  35  87 CALM      29.95F
LONE ROCK      CLEAR     37  35  92 W3        29.98F
MINERAL POINT  CLEAR     45  37  76 W5        29.97S
MADISON        CLEAR     38  36  92 CALM      29.95F
MIDDLETON      CLEAR     39  38  96 CALM      29.96F
WATERTOWN      CLEAR     36  34  93 CALM      29.95F
MONROE         CLEAR     45  37  76 W13       29.96S
JANESVILLE     CLEAR     36  36 100 CALM      29.96F
$$

WIZ051-052-058>065-066-070>072-031100-
SOUTHEAST WISCONSIN

CITY           SKY/WX    TMP DP  RH WIND       PRES   REMARKS
MILWAUKEE      PTCLDY    47  32  56 W6        29.95F
WAUKESHA       CLEAR     36  32  87 CALM      29.96F
MILWAUKEE/TIMM CLEAR     37  32  81 CALM      29.96F
RACINE         CLEAR     43  32  65 W6        29.97F
BURLINGTON     CLEAR     35  34  98 CALM      29.96S
KENOSHA        PTCLDY    39  32  76 W7        29.96F WCI  34
FOND DU LAC    CLEAR     45  34  65 SW7       29.94F
SHEBOYGAN      CLEAR     41  32  70 SW6       29.93F
WEST BEND      CLEAR     37  34  87 SW3       29.95S
JUNEAU         CLEAR     40  33  77 SW3       29.96S
$$

LSZ147-162-031100-
LAKE SUPERIOR

STATION/POSITION TIME  TEMP    WIND        PRES    WAVE
                       AIR SEA DIR/SP/G            HT/PER
                 (UTC) (F)     (DEG/KT/KT) (MB)    (FT/S)
W MID LAKE BUOY  0950   40 37  230/ 12/ 12 1009.3F
DEVILS ISLAND    1000   42     230/ 13/ 14 1009.8F
SAXON HARBOR     0900   49     200/  8/ 12 1010.8F
$$

LMZ867-665-643>646-031100-
LAKE MICHIGAN

STATION/POSITION TIME  TEMP    WIND        PRES    WAVE
                       AIR SEA DIR/SP/G            HT/PER
                 (UTC) (F)     (DEG/KT/KT) (MB)    (FT/S)
CHAMBERS ISLAND  0900   48     180/  6/ 12 1012.2F
N MID LAKE BUOY  0950   41 38  180/  8/ 10 1012.1F   0
NORTHPORT PIER   0900   47     170/  3/  6 1012.2F
ALGOMA LAKESHORE 0900          220/  6/  7   N/A
KEWAUNEE LAKESHO 1000   47     270/  6/  9 1011.9F
SHEBOYGAN LAKESH 1000   47     240/ 10/ 11 1013.9F
PORT WASHINGTON  0940   47     260/  5/  6 1014.6F
S MID LAKE BUOY  0950   42 41  260/  4/  4 1014.6F   0
KENOSHA   LAKESH 1000   46     260/  8/  9 1014.6F
$$

TC  - TEMPERATURE IN CELSIUS
VSB - VISIBILITY IN STATUTE MILES
WCI - WIND CHILL INDEX
HX  - HEAT INDEX





USA.gov is the U.S. government's official web portal to all federal, state and local government web resources and services.